EW9501 Weather Reports


time (UTC)temp
C
wind
direction
speed
KPH
gust
KPH
rain 1hr
cm
rain 24hr
cm
rain mn
cm
humidity
%
barometer
mb
20260506033045 8 0.0 0.0 0.25 1.73 1.73 93 1007.2
20260506031545 8 0.0 0.0 0.25 1.68 1.68 93 1007.2
20260506030044 8 0.0 0.0 0.25 1.63 1.63 93 1007.7
20260506024545 8 0.0 0.0 0.28 1.55 1.55 93 1007.7
20260506023054 8 0.0 0.0 0.25 1.45 1.45 93 1007.6
20260506021553 8 0.0 0.0 0.25 1.42 1.42 93 1007.6
20260506020041 8 0.0 0.0 0.23 1.37 1.37 93 1007.5
20260506014543 8 0.0 0.0 0.15 1.27 1.27 92 1007.2
20260506013037 8 0.0 0.0 0.10 1.22 1.22 92 1007.1
20260506011535 8 0.0 0.0 0.08 1.17 1.17 92 1006.8
20260506010045 9 0.0 0.0 0.10 1.14 1.14 92 1006.6
20260506004533 9 0.0 0.0 0.10 1.12 1.12 92 1006.5
20260506003033 9 0.0 0.0 0.10 1.12 1.12 92 1006.7
20260506001532 9 0.0 0.0 0.10 1.09 1.09 92 1006.7
20260506000030 9 0.0 0.0 0.08 1.04 1.04 92 1006.8
20260505234544 9 0.0 0.0 0.05 1.02 1.02 92 1006.6
20260505233035 9 0.0 0.0 0.08 1.02 1.02 92 1006.5
20260505231531 9 0.0 0.0 0.08 0.99 0.99 92 1006.3
20260505230025 10 0.0 0.0 0.10 0.97 0.97 92 1006.3
20260505224523 10 0.0 0.0 0.18 0.97 0.97 91 1006.3
20260505223023 10 0.0 0.0 0.23 0.94 0.94 92 1006.2
20260505221523 10 0.0 0.0 0.33 0.91 0.91 91 1006.3
20260505220020 10 0.0 0.0 0.36 0.86 0.86 91 1006.3
20260505214534 10 0.0 0.0 0.30 0.79 0.79 91 1006.2
20260505213017 10 0.0 0.0 0.25 0.69 0.69 91 1005.9
20260505211517 10 0.0 0.0 0.18 0.58 0.58 91 1006.0
20260505210015 10 0.0 0.0 0.10 0.51 0.51 90 1005.8
20260505204513 10 0.0 0.0 0.08 0.46 0.46 89 1005.9
20260505203017 11 0.0 0.0 0.08 0.43 0.43 88 1005.7
20260505201510 11 0.0 0.0 0.10 0.41 0.41 88 1005.9
20260505200007 11 0.0 0.0 0.15 0.41 0.41 90 1006.1
20260505194506 11 0.0 0.0 0.18 0.38 0.38 90 1006.5
20260505193002 12 0.0 0.0 0.18 0.33 0.33 89 1006.5
20260505191600 12 0.0 0.0 0.18 0.30 0.30 90 1006.4
20260505190055 13 0.0 0.0 0.18 0.25 0.25 90 1005.9
20260505184555 13 0.0 0.0 0.18 0.20 0.20 89 1005.9
20260505183054 13 0.0 0.0 0.15 0.15 0.15 88 1005.8
20260505181551 13 0.0 0.0 0.10 0.10 0.10 86 1005.5
20260505180104 14 0.0 0.0 0.08 0.08 0.08 84 1005.7
20260505174558 15 0.0 0.0 0.03 0.03 0.03 81 1005.5
20260505173046 15 0.0 0.0 0.00 0.00 0.00 76 1005.5
20260505171542 16 0.0 0.0 0.00 0.00 0.00 76 1005.5
20260505170041 15 0.0 0.0 0.00 0.00 0.00 76 1005.6
20260505164540 16 0.0 0.0 0.00 0.00 0.00 74 1005.6
20260505163039 16 0.0 0.0 0.00 0.00 0.00 73 1005.5
20260505161539 16 0.0 0.0 0.00 0.00 0.00 72 1005.5
20260505153040 16 0.0 0.0 0.00 0.00 0.00 72 1005.4
20260505151536 16 0.0 0.0 0.00 0.00 0.00 71 1005.3
20260505124529 16 0.0 0.0 0.00 0.00 0.00 70 1003.4
20260505123025 16 0.0 0.0 0.00 0.00 0.00 71 1003.3
20260505121524 16 0.0 0.0 0.00 0.00 0.00 71 1003.4
20260505120021 15 0.0 0.0 0.00 0.00 0.00 71 1002.9
20260505114519 15 0.0 0.0 0.00 0.00 0.00 71 1002.8
20260505113019 15 0.0 0.0 0.00 0.00 0.00 72 1002.3
20260505111514 15 0.0 0.0 0.00 0.00 0.00 73 1001.9
20260505101512 15 0.0 0.0 0.00 0.00 0.00 73 1001.4
20260505100012 15 0.0 0.0 0.00 0.00 0.00 73 1001.4
20260505094504 15 0.0 0.0 0.00 0.00 0.00 73 1001.4
20260505093006 16 0.0 0.0 0.00 0.00 0.00 71 1001.3
20260505091616 16 0.0 0.0 0.00 0.00 0.00 70 1001.1
20260505090057 16 0.0 0.0 0.00 0.00 0.00 68 1000.9
20260505084556 17 0.0 0.0 0.00 0.00 0.00 66 1000.8
20260505083100 17 0.0 0.0 0.00 0.00 0.00 65 1000.7
20260505081601 17 0.0 0.0 0.00 0.00 0.00 65 1000.6
20260505080107 17 0.0 0.0 0.00 0.00 0.00 69 1000.3
20260505074552 17 0.0 0.0 0.00 0.00 0.00 69 1000.1
20260505073050 17 0.0 0.0 0.00 0.00 0.00 67 1000.1
20260505071556 17 0.0 0.0 0.00 0.00 0.00 66 1000.2
20260505070048 18 0.0 0.0 0.00 0.00 0.00 64 1000.4
20260505064541 18 0.0 0.0 0.00 0.00 0.00 63 1000.6
20260505063048 19 0.0 0.0 0.00 0.00 0.00 61 1000.7
20260505061604 19 0.0 0.0 0.00 0.00 0.00 60 1001.0
20260505060037 19 0.0 0.0 0.00 0.00 0.00 60 1000.9
20260505054536 19 0.0 0.0 0.00 0.00 0.00 61 1000.3
20260505053041 19 0.0 0.0 0.00 0.00 0.00 61 1000.1
20260505051555 19 0.0 0.0 0.00 0.00 0.00 60 1000.0
20260505041532 20 0.0 0.0 0.00 0.00 0.00 59 1000.5
20260505040027 19 0.0 0.0 0.00 0.00 0.00 60 1000.5
20260505034529 19 0.0 0.0 0.00 0.00 0.00 61 1000.7